Retour au catalogue

YAOGAN-43 O1D

ActifMilitaireVLEO
NORAD 60461·PAYLOAD·🇨🇳 China

Lancé Aug 16, 2024 depuis Xichang Satellite Launch Center

Loading…

Prochains Passages (prochaines 24 heures)

TLE

FraisSource: Space-Track

Époque: Sep 14, 2026, 19:50 UTC

1 60461U 24148D   26257.82681383  .00006115  00000-0  20081-3 0  9994
2 60461  35.0049 298.3816 0002365 306.7862  53.2638 15.30892267116025

Suivez YAOGAN-43 O1D en temps réel avec AllMySat

Download on the App Store